User: anonymous   Login
Location: Table Mountain
(47.2500°N, 120.5778°W)
Time: 07:00:10
(UTC-08:00)
Language:

Hubble Space Telescope - Orbit

View from above orbital plane
View from above orbital plane
View from above satellite
View from above satellite

Ground track
Ground track

The orbit data is extracted from the following two-line orbital elements,

1 20580U 90037B   18051.88388889 +.00000489 +00000-0 +19009-4 0  9993
2 20580 028.4689 163.9054 0002640 333.7486 311.3663 15.08982399327793
Epoch (UTC): 20 February 2018 21:12:48
Eccentricity: 0.0002640
inclination: 28.4689°
perigee height: 537 km
apogee height: 541 km
right ascension of ascending node: 163.9054°
argument of perigee: 333.7486°
revolutions per day: 15.08982399
mean anomaly at epoch: 311.3663°
orbit number at epoch: 32779

The dashed part of the orbit path shows where the satellite is in the earth's shadow,  

DLR